Weather History for San Antonio, TX

Change the Weather History Date:

Friday, October 18, 2013

  Actual Average Record
Temperature  
Mean Temperature 68 °F 71 °F  
Max Temperature 75 °F 82 °F 93 °F (1895)
Min Temperature 61 °F 60 °F 45 °F (1975)
Degree Days  
Heating Degree Days 0 1  
Month to date heating degree days 4 7  
Since 1 July heating degree days 4 9  
Cooling Degree Days 3 7  
Month to date cooling degree days 198 151  
Year to date cooling degree days 3349 2985  
Growing Degree Days 18 (Base 50)    
Moisture  
Dew Point 61 °F    
Average Humidity 79    
Maximum Humidity 90    
Minimum Humidity 68    
Precipitation  
Precipitation T in 0.15 in 3.16 in (1998)
Month to date precipitation 1.97 2.44  
Year to date precipitation 29.11 26.41  
Snow  
Snow 0.00 in - - ()
Month to date snowfall 0.0  
Since 1 July snowfall 0.0  
Since 1 September snowfall 0.0  
Snow Depth 0.00 in    
Sea Level Pressure  
Sea Level Pressure 29.92 in    
Wind  
Wind Speed 4 mph (ENE)    
Max Wind Speed 10 mph    
Max Gust Speed 13 mph    
Visibility 9 miles    
Events Rain    
T = Trace of Precipitation, MM = Missing Value Source: NWS Daily Summary

Daily Weather History Graph

Daily Weather History Graph

Search for Another Location

Airport:

Trip Planner

Search our weather history database for the weather conditions in past years. The results will help you decide how hot, cold, wet, or windy it might be!

Date:

Astronomy

Oct. 18, 2013 Rise Set
Actual Time 7:37 AM CDT 6:59 PM CDT
Civil Twilight 7:13 AM CDT 7:24 PM CDT
Nautical Twilight 6:45 AM CDT 7:51 PM CDT
Astronomical Twilight 6:18 AM CDT 8:19 PM CDT
Moon 6:52 PM CDT (10/18) 7:14 AM CDT (10/18)
Length of Visible Light 12h 10m
Length of Day
11h 22m
Full, 100% of the Moon is Illuminated
Oct 18
Full
Oct 18
Full
Oct 26
Last Quarter
Nov 3
New
Nov 9
First Quarter

Hourly Weather History & Observations

Time (CDT) Temp. Dew Point Humidity Pressure Visibility Wind Dir Wind Speed Gust Speed Precip Events Conditions
12:51 AM 61.0 °F 54.0 °F 78% 29.97 in 10.0 mi Calm Calm - N/A   Mostly Cloudy
1:51 AM 61.0 °F 54.0 °F 78% 29.96 in 10.0 mi Calm Calm - N/A   Scattered Clouds
2:51 AM 62.1 °F 53.1 °F 72% 29.96 in 10.0 mi Calm Calm - N/A   Overcast
3:51 AM 63.0 °F 55.0 °F 75% 29.94 in 10.0 mi North 3.5 mph - N/A   Overcast
4:51 AM 63.0 °F 53.1 °F 70% 29.92 in 10.0 mi Calm Calm - N/A   Mostly Cloudy
5:51 AM 63.0 °F 54.0 °F 72% 29.92 in 10.0 mi Calm Calm - N/A   Mostly Cloudy
6:51 AM 63.0 °F 54.0 °F 72% 29.93 in 10.0 mi North 3.5 mph - N/A   Overcast
7:51 AM 64.0 °F 55.0 °F 73% 29.94 in 10.0 mi Calm Calm - N/A   Overcast
8:51 AM 64.9 °F 57.0 °F 75% 29.96 in 10.0 mi Calm Calm - N/A   Overcast
9:24 AM 66.2 °F 57.2 °F 73% 29.99 in 10.0 mi East 4.6 mph - N/A   Overcast
9:51 AM 66.9 °F 59.0 °F 76% 29.96 in 10.0 mi East 4.6 mph - N/A   Overcast
10:38 AM 68.0 °F 59.0 °F 73% 30.00 in 10.0 mi East 3.5 mph - N/A   Overcast
10:51 AM 69.1 °F 59.0 °F 70% 29.96 in 10.0 mi East 4.6 mph - N/A   Overcast
11:17 AM 69.8 °F 59.0 °F 68% 29.99 in 10.0 mi ENE 3.5 mph - N/A   Overcast
11:51 AM 71.1 °F 60.1 °F 68% 29.94 in 10.0 mi East 4.6 mph - N/A   Overcast
12:51 PM 71.1 °F 62.1 °F 73% 29.91 in 10.0 mi East 5.8 mph - N/A   Overcast
1:51 PM 73.0 °F 64.0 °F 73% 29.88 in 10.0 mi ENE 5.8 mph - N/A   Overcast
2:51 PM 73.9 °F 64.9 °F 73% 29.86 in 10.0 mi ESE 10.4 mph - N/A   Overcast
3:51 PM 73.9 °F 66.0 °F 76% 29.85 in 10.0 mi East 6.9 mph - N/A   Overcast
4:51 PM 73.0 °F 66.0 °F 79% 29.85 in 10.0 mi East 5.8 mph - N/A   Overcast
5:37 PM 71.6 °F 66.2 °F 83% 29.89 in 9.0 mi ENE 6.9 mph - N/A   Overcast
5:51 PM 71.1 °F 66.0 °F 84% 29.85 in 9.0 mi East 5.8 mph - N/A   Overcast
6:43 PM 69.8 °F 66.2 °F 88% 29.90 in 4.0 mi NE 6.9 mph - 0.00 in Rain Light Rain
6:51 PM 70.0 °F 66.0 °F 87% 29.86 in 4.0 mi ENE 5.8 mph - 0.00 in Rain Light Rain
7:14 PM 69.8 °F 66.2 °F 88% 29.91 in 4.0 mi NE 3.5 mph - 0.00 in Rain Light Rain
7:35 PM 69.8 °F 66.2 °F 88% 29.92 in 5.0 mi NE 4.6 mph - 0.00 in Rain Light Rain
7:51 PM 69.1 °F 66.0 °F 90% 29.88 in 6.0 mi NE 4.6 mph - 0.00 in   Light Drizzle
8:51 PM 69.1 °F 66.0 °F 90% 29.90 in 8.0 mi ENE 6.9 mph - 0.00 in   Overcast
9:51 PM 69.1 °F 66.0 °F 90% 29.92 in 7.0 mi East 3.5 mph - N/A   Overcast
10:35 PM 69.8 °F 64.4 °F 83% 29.98 in 10.0 mi East 5.8 mph - N/A   Mostly Cloudy
10:51 PM 69.1 °F 64.9 °F 87% 29.94 in 10.0 mi ENE 4.6 mph - N/A   Overcast
11:51 PM 69.1 °F 64.9 °F 87% 29.95 in 10.0 mi NE 5.8 mph - N/A   Overcast